Snow/Ice From: 16-12-2017 16:00 Until: 17-12-2017 16:00 warning for: Snow/Ice Level: Yellow info button

Although rather usual in this region, locally or potentially dangerous phenomena are expected. (such as local winds, summer thunderstorms, rising streams or high waves) Be aware and pay attention to the latest weather updates, especially if you carry out activities exposed to weather or close to a stream or shoreline. 


Meteo18 Weather Cam more information Meteo18 Weather Cam


Thunder radar more information blitzortung!


warning for Snow/Ice more information rain snow radar


Visit our other weather sites:

Template documentation
and downloads

And another site



Weather Underground History page Text

Daily Summary for May 6, 2016 Units:  Metric    English   Both
« Previous Day
Next Day »
Daily Weekly Monthly Yearly Custom
  High: Low: Average:
Temperature: 24.9 °C 4.9 °C 15.3 °C
Dew Point: 14.7 °C 3.7 °C 8.4 °C
Humidity: 95 % 37 % 67 %
Wind Speed: 8.0 km/h 0.0 km/h 0.9 km/h
Wind Gust: 12.9 km/h - -
Wind:- - WSW
Pressure: 1012.8 hPa 1008.7 hPa -
Precipitation: 0.0 mm    
Historical Graphs
 
 
Tabular Data for May 6, 2016
Time Temperature Dew Point Pressure Wind Wind Speed Wind Gust Humidity Rainfall Rate (Hourly)
00:02 8.5 °C 5.2 °C 1012.8 hPa Calm     80 % 0.0 mm
00:07 8.4 °C 5.3 °C 1012.8 hPa Calm     81 % 0.0 mm
00:12 8.5 °C 5.2 °C 1012.8 hPa Calm     80 % 0.0 mm
00:17 8.2 °C 5.1 °C 1012.8 hPa Calm     81 % 0.0 mm
00:22 7.9 °C 5.0 °C 1012.8 hPa Calm     82 % 0.0 mm
00:27 7.8 °C 5.1 °C 1012.8 hPa Calm     83 % 0.0 mm
00:32 7.8 °C 5.1 °C 1012.4 hPa Calm     83 % 0.0 mm
00:42 7.8 °C 5.1 °C 1012.4 hPa Calm     83 % 0.0 mm
00:47 7.8 °C 4.9 °C 1012.4 hPa Calm     82 % 0.0 mm
00:52 7.8 °C 4.9 °C 1012.4 hPa Calm     82 % 0.0 mm
00:57 7.7 °C 5.0 °C 1012.4 hPa Calm     83 % 0.0 mm
01:02 7.5 °C 5.0 °C 1012.4 hPa Calm     84 % 0.0 mm
01:12 7.6 °C 4.9 °C 1012.4 hPa Calm     83 % 0.0 mm
01:17 7.6 °C 4.9 °C 1012.4 hPa Calm     83 % 0.0 mm
01:22 7.6 °C 4.9 °C 1012.4 hPa Calm     83 % 0.0 mm
01:32 7.6 °C 4.9 °C 1012.4 hPa Calm     83 % 0.0 mm
01:37 7.4 °C 4.9 °C 1012.4 hPa Calm     84 % 0.0 mm
01:42 7.6 °C 4.9 °C 1012.4 hPa Calm     83 % 0.0 mm
01:47 7.6 °C 4.9 °C 1012.4 hPa Calm     83 % 0.0 mm
01:52 7.5 °C 4.8 °C 1012.4 hPa Calm     83 % 0.0 mm
01:57 7.4 °C 4.7 °C 1012.4 hPa Calm     83 % 0.0 mm
02:02 7.3 °C 4.8 °C 1012.4 hPa Calm     84 % 0.0 mm
02:07 7.2 °C 4.7 °C 1012.4 hPa Calm     84 % 0.0 mm
02:12 7.1 °C 4.6 °C 1012.4 hPa Calm     84 % 0.0 mm
02:17 6.9 °C 4.6 °C 1012.4 hPa Calm     85 % 0.0 mm
02:22 6.8 °C 4.6 °C 1012.4 hPa Calm     86 % 0.0 mm
02:27 6.8 °C 4.6 °C 1012.4 hPa Calm     86 % 0.0 mm
02:42 6.7 °C 4.7 °C 1012.4 hPa Calm     87 % 0.0 mm
02:47 6.7 °C 4.7 °C 1012.4 hPa Calm     87 % 0.0 mm
02:52 6.7 °C 4.7 °C 1012.4 hPa Calm     87 % 0.0 mm
02:57 6.6 °C 4.6 °C 1012.4 hPa Calm     87 % 0.0 mm
03:02 6.6 °C 4.6 °C 1012.4 hPa Calm     87 % 0.0 mm
03:07 6.5 °C 4.5 °C 1012.4 hPa Calm     87 % 0.0 mm
03:12 6.4 °C 4.6 °C 1012.4 hPa Calm     88 % 0.0 mm
03:17 6.3 °C 4.6 °C 1012.4 hPa Calm     89 % 0.0 mm
03:22 6.2 °C 4.4 °C 1012.4 hPa Calm     88 % 0.0 mm
03:27 6.2 °C 4.5 °C 1012.4 hPa Calm     89 % 0.0 mm
03:32 6.2 °C 4.5 °C 1012.4 hPa Calm     89 % 0.0 mm
03:37 6.1 °C 4.4 °C 1012.4 hPa Calm     89 % 0.0 mm
03:42 6.0 °C 4.3 °C 1012.4 hPa Calm     89 % 0.0 mm
03:47 5.9 °C 4.4 °C 1012.1 hPa Calm     90 % 0.0 mm
03:52 5.8 °C 4.3 °C 1012.1 hPa Calm     90 % 0.0 mm
03:57 5.7 °C 4.2 °C 1012.1 hPa Calm     90 % 0.0 mm
04:02 5.7 °C 4.3 °C 1012.1 hPa Calm     91 % 0.0 mm
04:07 5.6 °C 4.2 °C 1012.1 hPa Calm     91 % 0.0 mm
04:12 5.6 °C 4.2 °C 1012.1 hPa Calm     91 % 0.0 mm
04:17 5.5 °C 4.1 °C 1012.1 hPa Calm     91 % 0.0 mm
04:22 5.5 °C 4.1 °C 1012.1 hPa Calm     91 % 0.0 mm
04:27 5.5 °C 4.1 °C 1012.1 hPa Calm     91 % 0.0 mm
04:32 5.4 °C 4.0 °C 1012.1 hPa Calm     91 % 0.0 mm
04:37 5.3 °C 4.0 °C 1012.1 hPa Calm     91 % 0.0 mm
04:42 5.2 °C 3.9 °C 1012.4 hPa Calm     91 % 0.0 mm
04:47 5.2 °C 4.0 °C 1012.1 hPa Calm     92 % 0.0 mm
04:52 5.2 °C 3.9 °C 1012.4 hPa Calm     91 % 0.0 mm
05:02 5.1 °C 3.9 °C 1012.4 hPa Calm     92 % 0.0 mm
05:12 5.1 °C 3.9 °C 1012.4 hPa Calm     92 % 0.0 mm
05:17 5.1 °C 3.9 °C 1012.4 hPa Calm     92 % 0.0 mm
05:22 5.2 °C 4.0 °C 1012.1 hPa Calm     92 % 0.0 mm
05:32 5.1 °C 3.9 °C 1012.1 hPa Calm     92 % 0.0 mm
05:42 5.2 °C 4.2 °C 1012.1 hPa Calm     93 % 0.0 mm
05:47 5.2 °C 4.2 °C 1012.1 hPa Calm     93 % 0.0 mm
05:52 5.2 °C 4.0 °C 1012.1 hPa Calm     92 % 0.0 mm
05:57 5.1 °C 3.9 °C 1012.1 hPa Calm     92 % 0.0 mm
06:02 5.0 °C 3.8 °C 1012.1 hPa Calm     92 % 0.0 mm
06:07 5.0 °C 3.8 °C 1012.1 hPa Calm     92 % 0.0 mm
06:12 5.0 °C 3.8 °C 1012.1 hPa Calm     92 % 0.0 mm
06:22 4.9 °C 3.7 °C 1012.1 hPa Calm     92 % 0.0 mm
06:27 4.9 °C 3.7 °C 1012.1 hPa Calm     92 % 0.0 mm
06:32 4.9 °C 3.7 °C 1012.1 hPa Calm     92 % 0.0 mm
06:37 4.9 °C 3.7 °C 1012.4 hPa Calm     92 % 0.0 mm
06:42 4.9 °C 3.9 °C 1012.4 hPa Calm     93 % 0.0 mm
06:47 5.1 °C 4.1 °C 1012.4 hPa Calm     93 % 0.0 mm
06:52 5.1 °C 3.9 °C 1012.4 hPa Calm     92 % 0.0 mm
07:02 5.1 °C 3.9 °C 1012.4 hPa Calm     92 % 0.0 mm
07:12 5.2 °C 4.0 °C 1012.8 hPa Calm     92 % 0.0 mm
07:17 5.3 °C 4.3 °C 1012.8 hPa Calm     93 % 0.0 mm
07:22 5.3 °C 4.1 °C 1012.8 hPa Calm     92 % 0.0 mm
07:27 5.3 °C 4.1 °C 1012.8 hPa Calm     92 % 0.0 mm
07:32 5.4 °C 4.4 °C 1012.8 hPa Calm     93 % 0.0 mm
07:37 5.6 °C 4.7 °C 1012.8 hPa Calm     94 % 0.0 mm
07:42 5.9 °C 5.0 °C 1012.8 hPa Calm     94 % 0.0 mm
07:47 6.1 °C 5.2 °C 1012.8 hPa Calm     94 % 0.0 mm
07:52 6.4 °C 5.7 °C 1012.8 hPa Calm     95 % 0.0 mm
08:02 7.1 °C 5.9 °C 1012.8 hPa Calm     92 % 0.0 mm
08:12 7.9 °C 5.7 °C 1012.8 hPa Calm     86 % 0.0 mm
08:17 8.4 °C 5.9 °C 1012.8 hPa Calm     84 % 0.0 mm
08:22 8.9 °C 6.2 °C 1012.8 hPa Calm     83 % 0.0 mm
08:32 9.8 °C 6.7 °C 1012.8 hPa Calm     81 % 0.0 mm
08:37 10.2 °C 6.7 °C 1012.8 hPa Calm     79 % 0.0 mm
08:42 10.7 °C 7.4 °C 1012.8 hPa Calm   3.2 km/h 80 % 0.0 mm
08:47 11.3 °C 7.6 °C 1012.8 hPa West 1.6 km/h 3.2 km/h 78 % 0.0 mm
08:52 11.8 °C 7.9 °C 1012.8 hPa Calm   4.8 km/h 77 % 0.0 mm
08:57 12.2 °C 7.5 °C 1012.8 hPa Calm   4.8 km/h 73 % 0.0 mm
09:02 12.6 °C 7.9 °C 1012.8 hPa Calm   4.8 km/h 73 % 0.0 mm
09:07 13.1 °C 8.2 °C 1012.8 hPa Calm   6.4 km/h 72 % 0.0 mm
09:12 13.4 °C 8.0 °C 1012.8 hPa Calm   6.4 km/h 70 % 0.0 mm
09:17 13.7 °C 7.9 °C 1012.8 hPa Calm   8.0 km/h 68 % 0.0 mm
09:22 14.1 °C 7.8 °C 1012.8 hPa WSW 1.6 km/h 8.0 km/h 66 % 0.0 mm
09:27 14.5 °C 8.2 °C 1012.8 hPa NW 1.6 km/h 6.4 km/h 66 % 0.0 mm
09:32 14.8 °C 8.5 °C 1012.8 hPa Calm   6.4 km/h 66 % 0.0 mm
09:37 15.3 °C 8.5 °C 1012.8 hPa Calm   6.4 km/h 64 % 0.0 mm
09:42 15.8 °C 8.5 °C 1012.8 hPa SSE 1.6 km/h 4.8 km/h 62 % 0.0 mm
09:47 16.1 °C 7.8 °C 1012.8 hPa West 3.2 km/h 4.8 km/h 58 % 0.0 mm
09:52 16.4 °C 8.1 °C 1012.8 hPa NW 1.6 km/h 8.0 km/h 58 % 0.0 mm
09:57 16.9 °C 10.0 °C 1012.8 hPa WSW 4.8 km/h 11.3 km/h 64 % 0.0 mm
10:02 17.1 °C 8.5 °C 1012.8 hPa SW 1.6 km/h 11.3 km/h 57 % 0.0 mm
10:07 17.3 °C 9.0 °C 1012.8 hPa West 3.2 km/h 11.3 km/h 58 % 0.0 mm
10:12 17.5 °C 7.5 °C 1012.8 hPa West 1.6 km/h 11.3 km/h 52 % 0.0 mm
10:17 17.8 °C 8.1 °C 1012.8 hPa WSW 1.6 km/h 9.7 km/h 53 % 0.0 mm
10:22 18.0 °C 8.8 °C 1012.8 hPa WSW 1.6 km/h 9.7 km/h 55 % 0.0 mm
10:27 18.2 °C 8.2 °C 1012.8 hPa Calm   8.0 km/h 52 % 0.0 mm
10:32 18.4 °C 8.4 °C 1012.8 hPa West 3.2 km/h 11.3 km/h 52 % 0.0 mm
10:37 18.4 °C 7.8 °C 1012.8 hPa West 4.8 km/h 11.3 km/h 50 % 0.0 mm
10:42 18.5 °C 8.7 °C 1012.8 hPa WSW 3.2 km/h 11.3 km/h 53 % 0.0 mm
10:47 18.6 °C 8.8 °C 1012.4 hPa West 4.8 km/h 9.7 km/h 53 % 0.0 mm
10:52 18.7 °C 8.4 °C 1012.4 hPa WSW 1.6 km/h 9.7 km/h 51 % 0.0 mm
10:57 18.9 °C 9.1 °C 1012.4 hPa NW 1.6 km/h 9.7 km/h 53 % 0.0 mm
11:02 19.1 °C 9.0 °C 1012.4 hPa Calm   9.7 km/h 52 % 0.0 mm
11:07 19.4 °C 9.6 °C 1012.4 hPa West 3.2 km/h 11.3 km/h 53 % 0.0 mm
11:12 19.8 °C 10.5 °C 1012.4 hPa Calm   11.3 km/h 55 % 0.0 mm
11:17 20.0 °C 10.4 °C 1012.4 hPa WNW 1.6 km/h 12.9 km/h 54 % 0.0 mm
11:22 20.3 °C 9.8 °C 1012.4 hPa WSW 8.0 km/h 12.9 km/h 51 % 0.0 mm
11:27 20.6 °C 10.7 °C 1012.4 hPa WNW 1.6 km/h 12.9 km/h 53 % 0.0 mm
11:32 20.7 °C 9.3 °C 1012.1 hPa WNW 1.6 km/h 9.7 km/h 48 % 0.0 mm
11:37 20.8 °C 10.3 °C 1012.1 hPa WNW 3.2 km/h 9.7 km/h 51 % 0.0 mm
11:42 21.1 °C 8.7 °C 1012.1 hPa WSW 1.6 km/h 8.0 km/h 45 % 0.0 mm
11:47 21.1 °C 10.3 °C 1012.1 hPa Calm   8.0 km/h 50 % 0.0 mm
11:52 21.2 °C 8.5 °C 1012.1 hPa WSW 3.2 km/h 8.0 km/h 44 % 0.0 mm
11:57 21.2 °C 9.4 °C 1012.1 hPa WSW 3.2 km/h 11.3 km/h 47 % 0.0 mm
12:02 21.2 °C 9.1 °C 1012.1 hPa West 1.6 km/h 11.3 km/h 46 % 0.0 mm
12:07 21.2 °C 9.8 °C 1012.1 hPa Calm   11.3 km/h 48 % 0.0 mm
12:12 21.3 °C 8.2 °C 1012.1 hPa Calm   9.7 km/h 43 % 0.0 mm
12:17 21.4 °C 8.0 °C 1011.7 hPa Calm   9.7 km/h 42 % 0.0 mm
12:22 21.7 °C 11.1 °C 1011.7 hPa Calm   9.7 km/h 51 % 0.0 mm
12:32 21.8 °C 9.0 °C 1011.7 hPa WSW 3.2 km/h 8.0 km/h 44 % 0.0 mm
12:42 22.1 °C 10.3 °C 1011.7 hPa West 3.2 km/h 8.0 km/h 47 % 0.0 mm
12:47 22.3 °C 10.1 °C 1011.7 hPa WSW 4.8 km/h 8.0 km/h 46 % 0.0 mm
12:52 22.5 °C 10.0 °C 1011.7 hPa WSW 3.2 km/h 8.0 km/h 45 % 0.0 mm
12:57 22.7 °C 9.8 °C 1011.7 hPa West 8.0 km/h 8.0 km/h 44 % 0.0 mm
13:02 22.7 °C 9.8 °C 1011.4 hPa Calm   9.7 km/h 44 % 0.0 mm
13:07 22.8 °C 9.2 °C 1011.4 hPa WNW 3.2 km/h 9.7 km/h 42 % 0.0 mm
13:12 22.7 °C 10.5 °C 1011.4 hPa NW 1.6 km/h 9.7 km/h 46 % 0.0 mm
13:17 22.9 °C 8.6 °C 1011.4 hPa Calm   8.0 km/h 40 % 0.0 mm
13:22 22.9 °C 10.3 °C 1011.4 hPa WSW 3.2 km/h 8.0 km/h 45 % 0.0 mm
13:27 22.9 °C 9.3 °C 1011.4 hPa West 3.2 km/h 8.0 km/h 42 % 0.0 mm
13:32 22.8 °C 8.5 °C 1011.1 hPa Calm   11.3 km/h 40 % 0.0 mm
13:37 22.8 °C 9.6 °C 1011.1 hPa West 1.6 km/h 11.3 km/h 43 % 0.0 mm
13:42 23.0 °C 10.4 °C 1011.1 hPa West 3.2 km/h 11.3 km/h 45 % 0.0 mm
13:47 23.1 °C 10.5 °C 1011.1 hPa Calm   9.7 km/h 45 % 0.0 mm
13:52 23.6 °C 11.9 °C 1011.1 hPa West 1.6 km/h 9.7 km/h 48 % 0.0 mm
13:57 23.4 °C 9.8 °C 1011.1 hPa SSW 1.6 km/h 9.7 km/h 42 % 0.0 mm
14:02 23.5 °C 9.8 °C 1011.1 hPa Calm   8.0 km/h 42 % 0.0 mm
14:07 23.7 °C 10.4 °C 1010.7 hPa Calm   9.7 km/h 43 % 0.0 mm
14:12 23.7 °C 9.7 °C 1011.1 hPa West 1.6 km/h 9.7 km/h 41 % 0.0 mm
14:17 23.8 °C 10.8 °C 1010.7 hPa Calm   9.7 km/h 44 % 0.0 mm
14:22 23.8 °C 9.8 °C 1010.7 hPa WNW 4.8 km/h 9.7 km/h 41 % 0.0 mm
14:27 23.8 °C 8.6 °C 1010.7 hPa Calm   9.7 km/h 38 % 0.0 mm
14:32 24.0 °C 9.9 °C 1010.7 hPa WSW 6.4 km/h 8.0 km/h 41 % 0.0 mm
14:37 24.1 °C 8.5 °C 1010.7 hPa SSW 3.2 km/h 8.0 km/h 37 % 0.0 mm
14:42 24.1 °C 10.7 °C 1010.7 hPa SW 4.8 km/h 9.7 km/h 43 % 0.0 mm
14:47 24.3 °C 11.6 °C 1010.4 hPa Calm   9.7 km/h 45 % 0.0 mm
14:52 24.6 °C 9.3 °C 1010.4 hPa West 1.6 km/h 9.7 km/h 38 % 0.0 mm
14:57 24.6 °C 9.7 °C 1010.4 hPa West 6.4 km/h 9.7 km/h 39 % 0.0 mm
15:02 24.6 °C 10.8 °C 1010.4 hPa West 3.2 km/h 9.7 km/h 42 % 0.0 mm
15:12 24.6 °C 11.2 °C 1010.0 hPa WSW 1.6 km/h 9.7 km/h 43 % 0.0 mm
15:17 24.4 °C 9.2 °C 1010.0 hPa Calm   11.3 km/h 38 % 0.0 mm
15:22 24.4 °C 8.8 °C 1010.0 hPa WNW 4.8 km/h 11.3 km/h 37 % 0.0 mm
15:32 24.5 °C 10.0 °C 1010.0 hPa South 3.2 km/h 9.7 km/h 40 % 0.0 mm
15:37 24.5 °C 9.6 °C 1010.0 hPa WSW 1.6 km/h 11.3 km/h 39 % 0.0 mm
15:42 24.7 °C 10.9 °C 1010.0 hPa NW 1.6 km/h 11.3 km/h 42 % 0.0 mm
15:47 24.9 °C 11.1 °C 1010.0 hPa West 4.8 km/h 11.3 km/h 42 % 0.0 mm
15:52 24.9 °C 10.7 °C 1010.0 hPa ESE 4.8 km/h 8.0 km/h 41 % 0.0 mm
15:57 24.8 °C 9.9 °C 1010.0 hPa Calm   11.3 km/h 39 % 0.0 mm
16:02 24.4 °C 9.2 °C 1010.0 hPa NW 4.8 km/h 11.3 km/h 38 % 0.0 mm
16:07 23.8 °C 10.5 °C 1010.0 hPa Calm   11.3 km/h 43 % 0.0 mm
16:12 23.7 °C 8.5 °C 1010.0 hPa WNW 4.8 km/h 8.0 km/h 38 % 0.0 mm
16:17 24.2 °C 9.7 °C 1009.7 hPa Calm   9.7 km/h 40 % 0.0 mm
16:22 24.5 °C 8.9 °C 1009.7 hPa WNW 3.2 km/h 9.7 km/h 37 % 0.0 mm
16:27 24.1 °C 10.4 °C 1009.7 hPa WNW 1.6 km/h 9.7 km/h 42 % 0.0 mm
16:32 23.9 °C 9.5 °C 1009.4 hPa WSW 3.2 km/h 8.0 km/h 40 % 0.0 mm
16:37 24.2 °C 11.2 °C 1009.4 hPa WNW 4.8 km/h 8.0 km/h 44 % 0.0 mm
16:42 23.9 °C 9.8 °C 1009.4 hPa WNW 1.6 km/h 6.4 km/h 41 % 0.0 mm
16:47 23.9 °C 10.9 °C 1009.4 hPa Calm   9.7 km/h 44 % 0.0 mm
16:52 24.1 °C 10.4 °C 1009.4 hPa West 4.8 km/h 9.7 km/h 42 % 0.0 mm
16:57 24.3 °C 9.5 °C 1009.4 hPa WSW 4.8 km/h 9.7 km/h 39 % 0.0 mm
17:02 24.4 °C 9.9 °C 1009.4 hPa West 4.8 km/h 12.9 km/h 40 % 0.0 mm
17:07 24.3 °C 10.2 °C 1009.4 hPa South 1.6 km/h 12.9 km/h 41 % 0.0 mm
17:12 24.2 °C 10.5 °C 1009.4 hPa Calm   12.9 km/h 42 % 0.0 mm
17:17 24.1 °C 11.4 °C 1009.4 hPa Calm   11.3 km/h 45 % 0.0 mm
17:22 24.0 °C 11.7 °C 1009.0 hPa Calm   11.3 km/h 46 % 0.0 mm
17:27 23.7 °C 10.4 °C 1009.4 hPa Calm   4.8 km/h 43 % 0.0 mm
17:32 23.4 °C 11.1 °C 1009.0 hPa Calm   4.8 km/h 46 % 0.0 mm
17:37 23.3 °C 11.0 °C 1009.4 hPa Calm   4.8 km/h 46 % 0.0 mm
17:42 23.2 °C 11.9 °C 1009.4 hPa Calm   4.8 km/h 49 % 0.0 mm
17:52 23.2 °C 12.2 °C 1009.4 hPa WSW 3.2 km/h 3.2 km/h 50 % 0.0 mm
17:57 23.3 °C 11.7 °C 1009.0 hPa WSW 4.8 km/h 4.8 km/h 48 % 0.0 mm
18:02 23.3 °C 12.3 °C 1009.0 hPa Calm   6.4 km/h 50 % 0.0 mm
18:07 23.3 °C 11.0 °C 1009.0 hPa Calm   6.4 km/h 46 % 0.0 mm
18:12 23.4 °C 11.8 °C 1009.0 hPa Calm   6.4 km/h 48 % 0.0 mm
18:17 23.4 °C 11.8 °C 1009.0 hPa Calm   3.2 km/h 48 % 0.0 mm
18:22 23.3 °C 12.9 °C 1009.0 hPa Calm   3.2 km/h 52 % 0.0 mm
18:27 23.3 °C 13.8 °C 1009.0 hPa Calm   3.2 km/h 55 % 0.0 mm
18:32 23.6 °C 12.9 °C 1009.0 hPa Calm   3.2 km/h 51 % 0.0 mm
18:42 23.6 °C 11.6 °C 1009.0 hPa Calm   3.2 km/h 47 % 0.0 mm
18:47 23.4 °C 12.1 °C 1009.0 hPa Calm   4.8 km/h 49 % 0.0 mm
18:52 23.2 °C 11.6 °C 1009.0 hPa SW 1.6 km/h 4.8 km/h 48 % 0.0 mm
18:57 23.1 °C 11.2 °C 1008.7 hPa WSW 1.6 km/h 3.2 km/h 47 % 0.0 mm
19:02 23.1 °C 12.1 °C 1009.0 hPa Calm   3.2 km/h 50 % 0.0 mm
19:07 22.9 °C 13.1 °C 1009.0 hPa SW 1.6 km/h 3.2 km/h 54 % 0.0 mm
19:12 22.3 °C 12.5 °C 1008.7 hPa Calm   4.8 km/h 54 % 0.0 mm
19:17 21.9 °C 13.0 °C 1008.7 hPa Calm   4.8 km/h 57 % 0.0 mm
19:22 21.6 °C 13.5 °C 1008.7 hPa Calm   4.8 km/h 60 % 0.0 mm
19:27 21.2 °C 13.6 °C 1009.0 hPa Calm   1.6 km/h 62 % 0.0 mm
19:32 21.0 °C 13.4 °C 1008.7 hPa Calm   1.6 km/h 62 % 0.0 mm
19:37 20.8 °C 13.7 °C 1008.7 hPa Calm   1.6 km/h 64 % 0.0 mm
19:42 20.6 °C 13.6 °C 1008.7 hPa Calm   1.6 km/h 64 % 0.0 mm
19:47 20.6 °C 13.8 °C 1008.7 hPa Calm   1.6 km/h 65 % 0.0 mm
19:52 20.5 °C 13.7 °C 1008.7 hPa Calm   1.6 km/h 65 % 0.0 mm
19:57 20.4 °C 13.6 °C 1008.7 hPa Calm     65 % 0.0 mm
20:02 20.3 °C 13.5 °C 1008.7 hPa Calm     65 % 0.0 mm
20:07 20.2 °C 13.6 °C 1008.7 hPa Calm     66 % 0.0 mm
20:12 20.0 °C 13.7 °C 1008.7 hPa Calm     67 % 0.0 mm
20:17 19.7 °C 14.5 °C 1008.7 hPa Calm     72 % 0.0 mm
20:22 19.2 °C 14.7 °C 1008.7 hPa Calm     75 % 0.0 mm
20:27 18.9 °C 14.6 °C 1008.7 hPa Calm     76 % 0.0 mm
20:32 18.4 °C 13.9 °C 1008.7 hPa Calm     75 % 0.0 mm
20:37 18.1 °C 13.2 °C 1009.0 hPa Calm     73 % 0.0 mm
20:42 17.8 °C 12.3 °C 1009.0 hPa Calm   1.6 km/h 70 % 0.0 mm
20:47 17.6 °C 11.4 °C 1009.0 hPa SW 1.6 km/h 1.6 km/h 67 % 0.0 mm
20:52 17.5 °C 11.3 °C 1009.0 hPa SW 1.6 km/h 3.2 km/h 67 % 0.0 mm
20:57 17.4 °C 11.4 °C 1009.0 hPa Calm   4.8 km/h 68 % 0.0 mm
21:02 17.3 °C 11.1 °C 1009.0 hPa SW 1.6 km/h 4.8 km/h 67 % 0.0 mm
21:07 17.5 °C 11.1 °C 1009.4 hPa SSW 1.6 km/h 4.8 km/h 66 % 0.0 mm
21:12 17.5 °C 11.1 °C 1009.4 hPa Calm   4.8 km/h 66 % 0.0 mm
21:17 17.4 °C 11.0 °C 1009.4 hPa WSW 1.6 km/h 4.8 km/h 66 % 0.0 mm
21:22 17.4 °C 11.0 °C 1009.4 hPa Calm   4.8 km/h 66 % 0.0 mm
21:27 17.2 °C 11.0 °C 1009.4 hPa Calm   4.8 km/h 67 % 0.0 mm
21:32 17.2 °C 11.0 °C 1009.4 hPa Calm   3.2 km/h 67 % 0.0 mm
21:37 17.1 °C 11.1 °C 1009.4 hPa Calm   1.6 km/h 68 % 0.0 mm
21:42 16.7 °C 11.0 °C 1009.4 hPa Calm   1.6 km/h 69 % 0.0 mm
21:47 16.3 °C 11.0 °C 1009.4 hPa Calm   1.6 km/h 71 % 0.0 mm
21:52 15.9 °C 11.1 °C 1009.7 hPa Calm     73 % 0.0 mm
21:57 15.6 °C 11.0 °C 1009.7 hPa Calm     74 % 0.0 mm
22:07 14.8 °C 10.8 °C 1009.7 hPa Calm   1.6 km/h 77 % 0.0 mm
22:12 14.4 °C 10.8 °C 1009.7 hPa Calm   1.6 km/h 79 % 0.0 mm
22:17 13.9 °C 10.7 °C 1009.7 hPa Calm     81 % 0.0 mm
22:22 13.5 °C 10.5 °C 1009.7 hPa Calm     82 % 0.0 mm
22:27 13.5 °C 10.8 °C 1010.0 hPa Calm     84 % 0.0 mm
22:32 13.4 °C 10.8 °C 1010.0 hPa Calm   1.6 km/h 84 % 0.0 mm
22:37 13.4 °C 10.8 °C 1010.0 hPa Calm   1.6 km/h 84 % 0.0 mm
22:42 13.3 °C 10.7 °C 1010.0 hPa Calm     84 % 0.0 mm
22:47 13.2 °C 10.7 °C 1010.0 hPa Calm     85 % 0.0 mm
22:52 13.1 °C 10.6 °C 1010.0 hPa Calm     85 % 0.0 mm
23:02 12.8 °C 10.5 °C 1010.0 hPa Calm     86 % 0.0 mm
23:12 12.5 °C 10.4 °C 1009.7 hPa Calm     87 % 0.0 mm
23:17 12.3 °C 10.2 °C 1010.0 hPa Calm     87 % 0.0 mm
23:22 12.2 °C 10.3 °C 1009.7 hPa Calm     88 % 0.0 mm
23:27 12.1 °C 10.3 °C 1009.7 hPa Calm     89 % 0.0 mm
23:32 11.9 °C 10.1 °C 1009.7 hPa Calm     89 % 0.0 mm
23:37 11.8 °C 10.0 °C 1009.7 hPa Calm     89 % 0.0 mm
23:42 11.7 °C 9.9 °C 1009.7 hPa Calm     89 % 0.0 mm
23:47 11.6 °C 9.8 °C 1009.7 hPa Calm     89 % 0.0 mm
23:52 11.4 °C 9.7 °C 1009.7 hPa Calm     89 % 0.0 mm
23:57 11.3 °C 9.6 °C 1009.7 hPa Calm     89 % 0.0 mm
Meteo18
Compliments of Weather Underground - 4 mb

Script developed by  Jim McMurry - jmcmurry@mwt.net Adapted for the template by  Wim van der Kuil - Leuven-Template.eu

You find our weather info also at:

European Weather Network

Weather Underground

Equipment we use:

Weather-station
Davis Vue

Weather-program
Meteohub

Weather-server
Raspberry PI 2 B+

Provider
1 and 1

Davis Vue

Meteohub

Raspberry PI 2 B+

1 and 1